Home   Weather   Słupsk   Past weeks

Flag for Poland Past Weather in Słupsk, Poland — Yesterday and Last 2 Weeks

Now
60 °F

Overcast.


Feels Like: 60 °F
Forecast: 59 / 70 °F
Wind: 14 mph from Southwest

Location: Leba

Current Time: Sep 28, 2016 at 3:52:12 PM

Latest Report: Sep 28, 2016 at 3:00 PM


Visibility: 13 mi

Pressure: 29.93 "Hg

Humidity: 86%

Dew Point: 56 °F

Location of SłupskLocation

Past Weather in Słupsk — Graph

°F

Słupsk Temperature Yesterday

Maximum temperature yesterday: 63 °F (at 3:00 PM)
Minimum temperature yesterday: 43 °F (at 7:00 AM)
Average temperature yesterday: 51 °F

High & Low Weather Summary for the Past Weeks

 TemperatureHumidityPressure
High74 °F (Sep 13, 1:00 PM)98% (Sep 14, 6:00 AM)30.37 "Hg (Sep 14, 6:00 AM)
Low41 °F (Sep 21, 7:00 AM)52% (Sep 27, 3:00 PM)29.96 "Hg (Sep 28, 1:00 PM)
Average56 °F81%30.16 "Hg
* Reported Sep 13 1:00 PM — Sep 28 1:00 PM, Słupsk, Weather by CustomWeather, © 2016

Note: Actual official high and low records may vary slightly from our data, if they occured in-between our weather recording intervals... More about our weather records

Advertising

Słupsk Weather History for the Previous 24 Hours

Scroll right to see more
 ConditionsComfort  
Time TempWeatherWind HumidityBarometerVisibility
1:00 PM
Wed, Sep 28
57 °FLight rain. Low clouds.10 mph94%29.96 "Hg7 mi
12:00 PM57 °FRain. Overcast.13 mph91%29.98 "Hg3 mi
11:00 AMN/APassing clouds.28 mphN/AN/A2 mi
10:00 AM59 °FOvercast.7 mph76%30.01 "Hg12 mi
9:00 AM58 °FOvercast.7 mph75%30.03 "Hg12 mi
8:00 AM56 °FOvercast.6 mph75%30.06 "Hg12 mi
7:00 AM54 °FOvercast.5 mph79%30.11 "Hg12 mi
6:00 AM53 °FOvercast.3 mph77%30.14 "Hg12 mi
5:00 AM52 °FOvercast.5 mph78%30.17 "Hg12 mi
4:00 AM50 °FPassing clouds.5 mph83%30.19 "Hg11 mi
3:00 AM49 °FPassing clouds.5 mph84%30.22 "Hg9 mi
2:00 AM49 °FPassing clouds.3 mph85%30.25 "Hg9 mi
1:00 AM48 °FPassing clouds.5 mph88%30.27 "Hg9 mi
12:00 AM47 °FPassing clouds.3 mph88%30.29 "Hg9 mi
11:00 PM
Tue, Sep 27
47 °FClear.3 mph87%30.30 "Hg12 mi
10:00 PM48 °FClear.2 mph87%30.31 "Hg12 mi
9:00 PM48 °FClear.3 mph87%30.31 "Hg12 mi
8:00 PM49 °FPassing clouds.2 mph87%30.33 "Hg12 mi
7:00 PM52 °FClear.2 mph83%30.33 "Hg12 mi
6:00 PM57 °FSunny.2 mph71%30.32 "Hg12 mi
5:00 PM61 °FSunny.1 mph61%30.32 "Hg12 mi
4:00 PM62 °FSunny.1 mph59%30.34 "Hg12 mi
3:00 PM63 °FSunny.3 mph52%30.34 "Hg12 mi
Weather by CustomWeather, © 2016

See weather overviewHow to use our weather pages